www.pogodaiklimat.ru

Погода и климат >> Архив погоды >> Россия >> Иркутская область >> Ербогачен


АРХИВ ПОГОДЫ в Ербогачене

Время (UTC), дата Ветер
(напр.,м/с)
 
Видим.   Явления Облачность Т
(С)
Тd
(С)
f
(%)
Тe
(С)
Тes
(С)
Комфортность P
(гПа)
Po
(гПа)
Тmin
(С)
Tmax
(С)
R
(мм)
R24
(мм)
S
(см)
15 13.08 штиль 0 н/о 10/3 1000 м
[Sc diur, vesp Ac lent Cs]
+10.7 +8.3 85 +10 +10 1011.1 977.6
18 13.08 штиль 0 н/о осадки на расстоянии 10/6 600 м
[Cb cap Cs]
+10.2 +8.1 87 +9 +9 1010.5 977.0
21 13.08 З 1 20 км туман на расстоянии 10/6 600 м
[Cb cap Cs]
+9.3 +8.1 92 +9 +9 1011.0 977.4
00 14.08 С 1 50 км осадки на расстоянии 10/4 600 м
[Cb cap Cs]
+10.4 +7.9 84 +10 +12 1011.0 977.5 +8.8
03 14.08 С 1 20 км дым 10/0
[Ac trans Cs]
+16.8 +10.4 66 +18 +25 1010.2 977.5
06 14.08 С 2 10 км дым 10/0
[Cs]
+22.2 +11.5 51 +24 +32 комфорт 1009.8 977.6
09 14.08 С 3 10 км дым 10/0
[Cs]
+23.3 +10.0 43 +25 +28 комфорт 1009.2 977.2
12 14.08 СЗ 1 20 км гроза без осадков 9/9 600 м
[Cb calv]
+21.2 +10.4 50 +23 +23 комфорт 1011.1 978.7 +23.8
15 14.08 штиль 0 н/о туман на расстоянии {гроза, ливн. осадки} 10/3 1000 м
[Sc diur, vesp Cs]
+13.2 +11.9 92 +13 +13 1012.1 978.8
18 14.08 В 1 н/о туман на расстоянии {гроза, ливн. осадки} 10/0
[Ac lent Ci fib]
+11.0 +10.6 97 +11 +11 1013.0 979.5
21 14.08 С 1 20 км туман на расстоянии 10/0
[Cs]
+10.3 +9.5 95 +10 +10 1014.0 980.4
00 15.08 С 2 4000 м мгла 10/0
[Ac lent Cs]
+12.3 +10.0 86 +11 +13 1014.8 981.3 +9.2 2
03 15.08 С 1 4000 м мгла 10/0
[Ac lent Cs]
+16.4 +10.6 69 +17 +25 1014.4 981.4
06 15.08 С 4 10 км дым 10/0
[Ac lent Cs]
+20.2 +10.9 55 +22 +25 комфорт 1014.0 981.4
09 15.08 С 3 20 км дым 10/8 1000 м
[Sc Cs]
+19.4 +11.8 61 +21 +21 комфорт 1014.4 981.7
12 15.08 С 3 20 км дым 10/8 1000 м
[Sc Cs]
+17.3 +11.6 69 +17 +17 1015.0 982.1 +20.4
15 15.08 С 2 н/о 10/8 1000 м
[Sc Cs]
+14.9 +11.4 80 +15 +15 1015.9 982.8
18 15.08 С 2 н/о туман на расстоянии 10/6 1000 м
[Sc Cs]
+12.9 +11.2 89 +12 +12 1016.3 982.9
21 15.08 С 1 20 км туман на расстоянии 10/8 1000 м
[Sc Cs]
+11.2 +10.6 96 +11 +11 1016.8 983.2
00 16.08 С 2 20 км дым 10/10 600 м
[Cb cap]
+12.9 +11.2 89 +12 +12 1017.2 983.8 +10.7
03 16.08 С 2 20 км дым 10/10 300 м
[Cb cap]
+14.0 +11.2 83 +13 +13 1017.6 984.2
06 16.08 С 3 20 км дым 10/10 300 м
[Cb cap]
+13.2 +10.7 85 +12 +12 1017.8 984.3
09 16.08 СВ 2 20 км дым 10/10 300 м
[Cb cap]
+13.5 +10.8 84 +13 +13 1017.8 984.3
12 16.08 СВ 1 50 км осадки на расстоянии 10/10 300 м
[Cb cap]
+13.5 +10.8 84 +14 +14 1017.6 984.1 +14.4
15 16.08 С 2 н/о осадки на расстоянии 10/10 300 м
[Cb cap]
+12.9 +9.8 81 +12 +12 1016.8 983.4
18 16.08 СЗ 1 н/о слаб. ливневой дождь 10/10 300 м
[Cb cap]
+11.1 +10.9 99 +11 +11 1016.4 982.8
21 16.08 С 1 2000 м туман на расстоянии {ливн. осадки} 10/10 300 м
[Cb cap]
+10.3 +10.1 99 +10 +10 1016.2 982.5
00 17.08 СЗ 1 1000 м туман на расстоянии 10/10 300 м
[Cb cap]
+11.0 +10.6 97 +11 +11 1015.9 982.3 +10.2 1
03 17.08 С 2 10 км слаб. ливневой дождь 10/10 300 м
[Cb cap]
+13.2 +11.3 88 +12 +12 1015.4 982.0
06 17.08 СВ 2 20 км слаб. ливневой дождь 10/10 300 м
[Cb cap]
+13.5 +12.0 91 +13 +13 1015.2 981.8
09 17.08 С 1 20 км слаб. ливневой дождь 10/10 600 м
[Cb cap]
+13.9 +12.2 89 +14 +14 1015.0 981.8
12 17.08 СЗ 2 20 км слаб. ливневой дождь 10/10 300 м
[Cb cap]
+13.3 +12.8 97 +12 +12 1014.6 981.2 +14.1 2
15 17.08 штиль 0 н/о слаб. ливневой дождь 10/10 300 м
[Cb cap]
+12.6 +12.4 99 +12 +12 1013.6 980.3
18 17.08 С 1 н/о слаб. ливневой дождь 10/10 300 м
[Cb cap]
+12.1 +11.7 97 +12 +12 1013.0 979.6
21 17.08 СВ 1 4000 м слаб. ливневой дождь 10/10 300 м
[Cb cap]
+11.7 +11.5 99 +11 +11 1012.8 979.4
00 18.08 С 1 4000 м дымка {ливн. осадки} 10/10 200 м
[Cb cap]
+12.4 +12.0 97 +12 +12 1012.6 979.2 +11.6 4
03 18.08 С 1 4000 м дымка 10/10 200 м
[Cb cap]
+13.3 +12.9 97 +13 +13 1012.0 978.7
06 18.08 С 1 20 км слаб. ливневой дождь 10/10 200 м
[Cb cap]
+14.4 +13.7 96 +15 +15 1011.5 978.5
09 18.08 С 2 10 км слаб. ливневой дождь 10/10 300 м
[Cb cap]
+14.4 +14.0 97 +14 +14 1011.3 978.3
12 18.08 С 1 10 км слаб. ливневой дождь 10/10 300 м
[Cb cap]
+14.1 +13.9 99 +14 +14 1011.5 978.4 +14.6 5
15 18.08 штиль 0 н/о туман на расстоянии {ливн. осадки} 10/10 600 м
[Cb cap]
+13.4 +13.0 97 +13 +13 1011.8 978.6
18 18.08 СВ 1 н/о туман на расстоянии {ливн. осадки} 10/10 1000 м
[Sc]
+12.6 +12.2 97 +12 +12 1012.4 979.1
21 18.08 штиль 0 20 км туман на расстоянии 10/10 300 м
[Cb cap]
+12.1 +11.5 96 +11 +11 1013.0 979.6
00 19.08 СВ 2 50 км туман на расстоянии 10/8 300 м
[Cb cap Ac lent Cs]
+11.8 +11.0 95 +11 +11 1014.0 980.6 +11.1
03 19.08 С 1 50 км осадки на расстоянии 10/6 600 м
[Cb cap Ac lent Cc]
+14.0 +11.6 85 +14 +16 1014.0 980.8
06 19.08 СЗ 1 50 км осадки на расстоянии 10/10 600 м
[Cb cap]
+15.6 +10.1 70 +16 +16 1013.7 980.7
09 19.08 С 1 50 км осадки на расстоянии 10/6 600 м
[Cb cap Cs]
+17.9 +9.3 57 +19 +20 1012.4 979.7
12 19.08 штиль 0 50 км {ливн. осадки} 10/3 1000 м
[Sc diur, vesp Ac lent Cs]
+15.7 +12.8 83 +15 +15 1012.3 979.4 +18.1 0.0
15 19.08 штиль 0 н/о слаб. ливневой дождь 10/10 600 м
[Cb cap]
+12.8 +12.4 97 +12 +12 1012.6 979.3
18 19.08 С 1 н/о осадки на расстоянии {ливн. осадки} 10/10 600 м
[Cb cap]
+12.2 +12.0 99 +12 +12 1012.5 979.1
21 19.08 С 1 20 км слаб. ливневой дождь 10/10 300 м
[Cb cap]
+11.4 +11.2 99 +11 +11 1012.7 979.2
00 20.08 С 1 50 км осадки на расстоянии {ливн. осадки} 10/10 300 м
[Cb cap]
+12.1 +11.3 95 +12 +12 1012.3 978.9 +11.2 6
03 20.08 С 1 50 км осадки на расстоянии {ливн. осадки} 9/8 300 м
[Cb cap Ac lent Ci fib]
+12.6 +11.5 93 +13 +14 1012.4 979.1
06 20.08 С 3 50 км слаб. ливневой дождь 10/10 300 м
[Cb cap]
+13.9 +12.4 91 +13 +13 1012.3 979.1
09 20.08 С 3 50 км слаб. ливневой дождь 9/8 300 м
[Cb cap Ci fib]
+13.3 +12.8 97 +12 +12 1012.4 979.1

 

Местоположение метеостанции Ербогачен (Иркутская область, Россия): широта 61.27 долгота 108.00 высота над уровнем моря 282 м.

В архиве по умолчанию представлена погода в Ербогачене за последнюю неделю. Архивные данные за месяц целиком и за предыдущие месяцы, начиная с января 2011 года, Вы можете получить, выбрав интересующий диапазон дат из раскрывающегося списка и нажав кнопку "Ввод!".


*Определитесь, кто Вы:
робот инопланетянин человек

Внимание! Время в таблицах - всемирное. Для получения местного времени необходимо прибавить поправку, которая равна 8 ч.

Смотрите также архив погоды в соседних городах и на ближайших метеорологических станциях:

Погода в Преображенке (Иркутская область, Россия) (136 км)
Погода в Туой-Хае (Якутия, Россия) (218 км)
Погода в Комаке (Якутия, Россия) (230 км)
Погода в Ике (Иркутская область, Россия) (245 км)
Погода в Стрелке-Чуне (Эвенкия, Россия) (281 км)
Погода в Чернышевском (Якутия, Россия) (301 км)
Погода в Чемдальске (Красноярский край, Россия) (316 км)
Погода в Витиме (Якутия, Россия) (320 км)
Погода в Ванаваре (Эвенкия, Россия) (326 км)
Погода в Кислокане (Эвенкия, Россия) (332 км)

Пояснения к столбцам:

Ветер - указаны скорость ветра в м/с - средняя за 10 мин, порывы в срок и между сроками (в фигурных скобках) и направление, откуда дует ветер: С - северный, СВ - северо-восточный, В - восточный, ЮВ - юго-восточный, Ю - южный, ЮЗ - юго-западный, З - западный, СЗ - северо-западный.
Видимость - горизонтальная дальность видимости в метрах или километрах. При видимости от 1 до 10 км при отсутствии осадков обычно наблюдается дымка, при ухудшении видимости до 1 км и менее - туман. В сухую погоду видимость может ухудшаться дымом, пылью или мглою.
Явления - указаны атмосферные явления, наблюдавшиеся в срок или в последний час перед сроком; фигурными скобками обозначены явления, наблюдавшиеся между сроками (за 1-3 часа до срока); квадратными скобками обозначены град или гололедные отложения с указанием их диаметра в мм.
Облачность - указаны через наклонную черту общая и нижняя облачность в баллах и высота нижней границы облаков в метрах; квадратными скобками обозначены формы облаков: Ci - перистые, Cs - перисто-слоистые, Cc - перисто-кучевые, Ac - высококучевые, As - высокослоистые, Sc - слоисто-кучевые, Ns - слоисто-дождевые, Cu - кучевые, Cb - кучево-дождевые. Подробнее классификацию облаков см. в Атласе облаков (PDF).
T - Температура воздуха - температура, измеренная на высоте 2 м над землей.
Td - Температура точки росы - температура, при понижении до которой содержащийся в воздухе водяной пар достигнет насыщения.
f - Относительная влажность воздуха - влажноcть воздуха, измеренная на высоте 2 м над землей.
Te - Эффективная температура - температура, которую ощущает одетый по сезону человек в тени. Характеристика душности погоды. При расчете учитывается влияние влажности воздуха и скорости ветра на теплоощущения человека.
Tes - Эффективная температура на солнце - температура, которую ощущает человек, с поправкой на солнечный нагрев. Характеристика знойности погоды. Зависит от высоты солнца над горизонтом, облачности и скорости ветра. Ночью, в пасмурную погоду, а также при ветре 12 м/с и более поправка равна нулю.
P - Атмосферное давление - приведенное к уровню моря атмосферное давление.
Po - Атмосферное давление - измеренное на уровне метеостанции атмосферное давление.
Tmin - Минимальная температура - минимум температуры воздуха на высоте 2 м над землей.
Tmax - Максимальная температура - максимум температуры воздуха на высоте 2 м над землей.
R - Количество осадков - Количество выпавших осадков за период времени, мм. При наведении курсора мыши на число - период времени, за который выпало указанное количество осадков.
R24 - Количество осадков - Количество выпавших осадков за 24 часа, мм.
S - Снежный покров - Высота снежного покрова, см. При наведении курсора мыши на число - состояние снежного покрова и степень покрытия местности в баллах.